Location: Heidgraben
(53.7081°N, 9.6576°E)
Time: 19:49:15
(UTC+00:00)

NOSS 3-3 (C) - Pass Details

Date: 05 July 2020
Orbit: 823 x 1389 km, 63.4° (Epoch: 11 August)

Event Time Altitude Azimuth Distance (km) Brightness Sun altitude
Rises 22:17:44 0° 230° (SW) 3,462 6.6 -12.2°
Reaches altitude 10° 22:20:06 10° 231° (SW) 2,578 6.0 -12.3°
Maximum altitude 22:26:06 82° 319° (NW) 999 4.1 -12.5°
Drops below altitude 10° 22:33:04 10° 49° (NE) 2,959 6.9 -12.8°
Sets 22:35:56 0° 50° (NE) 4,008 7.6 -12.9°
